RH
102 103 102 103 102 102 105 104 101 93 88 87 88 88 84 83 82 78 75 71 69 65 59 54 48 42 38 36 34 33 33 33 34 33 34 34 35 35 33 31 30 30 30 29 29 28 28 27 27 26 26 27 27 27 26 26 27 34 44 39 37 46 49 40 30 30 33 34 32 37 44 46 49 51 50 45 47 54 54 52 49 48 49 54 58 60 59 52 49 47 45 42 40 39 40 40 37
89 88 84 83 82 88 96 100 106 104 99 98 95 92 86 82 83 79 75 72 67 64 58 53 50 44 40 36 34 33 31 31 31 31 31 31 31 30 30 31 30 30 30 30 30 29 29 29 28 28 26 25 25 26 31 43 50 65 80 71 70 83 84 64 42 41 47 48 50 57 64 66 67 62 57 54 54 59 60 59 58 56 59 65 60 51 51 49 49 48 45 43 42 43 42 41 37
68 65 61 60 59 64 72 82 100 105 102 104 101 96 86 80 82 79 75 70 64 61 57 53 50 46 42 37 35 34 32 32 31 31 31 31 31 31 32 31 31 31 31 32 31 31 30 27 26 26 30 37 44 50 63 83 88 94 103 96 97 100 92 79 70 78 85 85 84 86 90 92 87 76 69 66 65 67 66 63 61 63 69 72 58 44 45 46 50 49 47 45 45 45 42 40 38
63 58 56 55 55 56 59 69 83 89 94 100 102 96 85 81 81 78 74 68 61 59 56 52 50 48 44 39 36 34 33 32 32 32 31 31 32 31 32 32 33 33 34 34 32 32 29 35 50 59 66 79 88 92 96 102 101 99 101 98 99 99 91 83 85 97 101 95 83 78 90 101 95 85 82 79 78 77 69 58 50 58 72 78 64 49 52 54 55 53 51 50 48 45 41 42 45
75 70 66 63 63 62 65 70 72 76 85 94 98 93 85 82 79 77 74 66 61 59 56 54 52 49 45 40 36 35 34 33 33 33 32 33 32 33 33 34 34 35 36 34 36 45 56 74 91 97 97 102 101 98 100 100 100 101 100 96 94 94 95 86 75 80 89 87 72 59 68 94 99 83 82 87 88 83 72 58 48 58 75 84 73 59 63 63 61 60 57 53 47 43 44 48 52
91 89 86 83 80 79 83 87 87 87 91 95 96 91 86 84 81 79 74 67 64 62 59 55 51 47 42 39 37 36 35 35 35 34 34 34 34 34 34 36 37 39 40 44 61 77 93 105 103 100 100 104 101 94 99 103 99 93 91 90 90 87 89 87 71 68 76 76 70 58 51 70 92 84 82 92 91 79 65 58 63 74 82 84 74 65 68 67 66 65 58 52 46 45 50 55 54
78 80 81 82 83 85 89 93 95 94 93 92 90 84 81 82 82 80 75 72 68 63 58 53 48 44 42 40 38 37 36 36 36 36 36 35 36 36 37 38 39 39 38 47 70 82 89 94 90 94 99 99 102 100 101 107 102 91 87 85 91 93 86 81 73 69 68 69 68 66 54 45 73 94 88 88 80 67 63 69 82 86 82 79 72 71 74 72 69 64 57 50 48 51 56 58 54
53 54 55 58 62 65 69 73 78 80 79 77 74 69 64 65 67 68 69 67 65 60 54 50 46 43 42 39 38 37 37 37 36 36 36 37 37 37 38 38 40 48 48 43 48 53 54 59 63 76 87 83 90 103 102 105 106 97 93 89 95 102 92 80 76 77 76 80 79 75 67 46 66 98 86 75 71 69 80 90 93 87 82 79 78 82 81 74 68 61 56 52 54 58 59 59 52
45 45 45 46 48 50 53 56 61 64 65 64 62 58 53 52 51 52 53 54 54 53 48 45 43 42 41 39 38 38 37 37 36 37 37 38 38 39 47 55 66 83 84 62 47 42 39 45 50 54 56 52 66 92 101 104 103 95 96 99 99 101 102 97 89 86 85 89 90 89 93 78 79 91 80 78 85 90 98 100 95 89 88 88 87 89 84 73 64 58 54 54 58 59 59 57 51
48 48 47 48 48 50 52 55 58 60 60 60 57 55 52 50 48 46 45 45 45 45 43 41 41 40 40 39 38 38 37 37 36 37 37 38 38 39 46 54 64 79 75 52 44 51 63 76 78 73 60 56 73 86 93 101 99 96 101 103 100 99 105 106 96 91 91 94 96 100 108 102 93 92 91 96 102 102 101 100 96 93 93 91 89 88 82 70 59 54 52 53 56 58 59 56 53
52 53 52 52 52 53 55 57 58 58 56 56 55 53 50 49 48 46 44 43 42 41 40 40 39 39 39 38 38 38 38 37 37 37 37 37 38 38 40 40 42 47 44 42 54 67 81 96 98 96 87 83 88 81 86 99 98 99 103 101 98 99 102 102 99 96 96 98 99 101 104 103 100 100 102 102 104 106 105 101 97 96 94 89 85 83 76 64 53 48 48 49 55 60 58 55 56
53 54 53 53 53 54 55 57 57 55 55 54 53 51 49 48 46 46 44 42 41 40 40 40 39 39 39 38 38 39 38 38 38 37 37 37 38 39 40 41 43 41 41 52 70 79 78 82 88 94 95 91 87 82 93 102 97 97 100 101 99 100 100 98 98 96 95 100 100 99 98 97 99 101 101 101 102 105 106 102 99 100 94 88 84 77 67 55 45 40 43 53 61 63 56 56 60
50 51 51 52 52 53 54 54 54 53 53 52 51 50 48 47 46 45 44 43 41 40 40 40 40 40 39 39 39 40 39 38 38 38 38 39 40 42 43 44 45 41 43 52 63 75 77 78 89 98 101 97 91 93 101 104 98 96 100 102 101 101 101 97 98 96 93 95 92 83 76 77 92 100 99 100 100 103 105 100 101 102 94 89 82 70 57 45 39 38 50 66 68 62 56 59 62
47 49 49 50 50 50 51 50 50 50 50 50 49 48 46 46 45 45 44 44 43 42 43 43 43 42 42 43 42 41 40 40 41 42 42 43 44 45 45 44 43 40 41 48 48 55 68 83 95 101 106 103 99 100 103 106 103 101 101 102 102 99 97 98 98 91 85 84 75 69 67 73 92 101 99 100 100 104 105 101 102 101 97 91 79 63 52 44 43 53 68 74 70 63 58 62 62
47 48 49 50 50 49 49 49 49 48 48 47 47 46 46 45 45 45 45 45 45 45 45 45 45 45 46 46 43 43 43 44 45 45 45 46 46 45 44 41 42 42 40 44 44 47 68 87 85 79 85 90 92 92 89 87 92 102 100 99 104 100 97 101 98 88 85 83 75 81 89 91 95 94 96 99 100 105 104 104 104 99 95 88 76 62 53 48 55 76 85 77 71 66 59 60 60
47 49 51 51 51 51 51 50 50 50 49 47 47 47 46 47 47 47 47 47 47 47 47 48 49 48 46 46 45 45 46 47 47 46 45 43 43 42 42 40 39 41 38 38 44 53 63 62 50 43 44 49 52 54 52 45 54 84 103 100 98 100 100 101 100 96 95 89 83 91 92 83 77 76 83 89 95 102 103 104 103 97 88 80 73 60 53 58 77 95 91 79 75 68 62 63 64
46 50 52 53 54 54 53 53 54 53 51 50 49 50 50 50 51 51 52 52 52 53 53 51 50 47 45 46 48 47 46 47 47 45 44 42 42 41 39 38 36 37 36 34 39 45 43 34 28 27 24 22 23 24 25 24 24 47 74 70 70 94 102 100 101 99 100 95 92 91 81 70 62 58 62 77 93 100 101 102 102 97 83 74 66 57 62 79 97 103 92 81 77 71 69 70 72
41 45 49 54 55 55 56 57 57 54 53 53 53 54 54 55 57 58 59 58 58 56 51 47 47 46 45 45 46 46 44 44 44 43 43 42 41 40 36 31 28 29 30 28 28 27 25 23 21 19 17 16 15 13 12 17 19 23 33 32 60 102 102 98 101 98 99 99 102 96 85 83 79 67 60 73 96 100 100 102 101 94 77 66 61 63 80 95 100 98 90 84 81 75 68 67 69
31 35 42 49 49 50 52 55 55 53 52 53 55 57 58 61 62 61 59 55 52 49 44 43 45 41 38 39 40 40 40 41 42 39 37 37 36 33 28 22 18 19 20 20 19 20 20 19 19 19 18 15 11 12 12 15 19 23 27 26 59 99 102 104 104 101 96 88 98 99 90 90 85 78 71 81 99 100 101 103 100 94 78 64 67 83 93 93 93 89 84 84 84 79 68 61 62
22 25 33 37 36 39 43 46 45 44 46 49 52 54 57 62 60 55 54 48 41 39 38 38 37 33 33 32 32 33 35 36 35 33 29 26 24 21 18 15 13 13 14 14 15 18 20 19 21 20 17 16 14 17 20 23 27 29 34 32 41 61 77 90 90 89 84 75 90 101 98 94 84 76 74 89 103 101 102 102 100 99 88 71 72 92 100 97 98 93 89 88 86 82 73 62 59
17 20 27 27 26 32 33 34 34 35 38 39 41 49 58 60 51 42 40 38 35 35 35 31 29 31 32 29 27 28 28 26 23 21 19 15 13 13 12 11 10 12 13 14 16 18 20 21 23 24 22 22 24 27 31 33 34 33 35 36 38 43 56 76 86 84 80 80 93 102 104 100 96 90 88 99 102 99 103 101 100 101 97 82 68 76 92 99 102 102 101 99 93 88 79 65 60
17 19 24 23 24 29 29 29 30 30 30 31 39 50 54 46 35 28 26 30 34 35 30 24 24 25 25 24 23 21 18 16 15 13 12 11 11 12 12 13 12 14 16 16 18 19 21 23 25 28 30 32 34 37 40 40 38 37 37 42 58 73 84 95 100 95 93 96 98 102 104 98 98 100 99 100 92 92 101 101 101 101 99 87 68 65 77 88 97 103 103 103 101 99 90 72 64
19 23 27 27 27 30 29 28 26 24 25 33 42 43 35 27 25 24 24 27 30 29 22 18 19 17 16 17 17 15 13 13 14 14 13 13 13 14 14 14 14 15 17 18 18 19 22 27 32 35 37 40 42 43 44 44 43 39 38 51 76 94 102 103 101 101 102 101 100 102 102 97 98 100 100 101 94 92 97 100 101 103 101 86 72 69 68 75 95 104 101 102 104 105 98 78 70
27 32 33 29 26 28 29 24 21 22 26 33 37 32 25 22 22 20 20 23 25 23 18 16 18 16 14 14 14 15 14 14 15 14 13 13 13 13 13 13 13 13 14 15 17 17 22 31 38 40 41 41 43 45 44 43 43 41 45 55 69 85 98 102 100 101 101 101 102 102 102 98 97 98 100 103 98 93 98 102 100 103 102 84 77 79 68 70 91 102 102 101 104 106 99 86 84
33 35 32 27 26 29 29 25 24 24 26 30 32 31 29 25 20 17 19 22 22 19 17 18 18 17 14 13 14 14 13 12 12 12 11 11 11 11 11 11 11 11 13 14 15 16 26 40 42 39 42 45 45 45 45 44 41 42 50 56 66 86 100 101 100 100 101 103 102 100 102 100 97 99 102 100 91 87 97 102 99 102 95 76 79 85 72 71 86 97 103 103 106 108 102 97 98
25 27 26 28 31 31 30 29 28 25 25 28 29 30 29 25 21 20 20 19 17 15 15 16 15 14 13 12 12 12 12 12 11 12 11 11 11 12 12 12 12 12 13 13 16 21 31 40 40 37 39 43 46 48 49 49 45 41 44 60 84 99 100 99 100 100 102 103 101 100 100 100 100 99 100 101 94 93 99 97 91 85 73 64 75 85 76 74 86 97 102 103 106 107 102 101 100
20 22 23 23 25 25 24 23 22 21 21 22 23 23 22 19 18 17 15 14 13 13 13 13 13 13 12 12 12 12 13 13 13 13 13 13 14 15 16 17 17 16 17 17 19 21 26 32 37 37 34 36 44 55 59 52 48 44 43 68 99 104 101 102 99 98 102 101 99 100 101 101 101 100 100 101 99 100 99 83 68 60 57 62 71 78 76 78 93 102 102 102 103 103 102 101 101
22 21 21 21 22 21 18 17 17 18 18 18 18 18 17 16 16 14 13 13 12 14 14 15 15 14 15 15 15 15 16 16 16 16 15 15 15 17 19 20 20 20 21 22 22 22 25 29 31 30 27 29 34 44 55 51 48 45 41 61 84 89 94 100 100 100 101 101 100 101 101 100 100 100 100 101 100 96 85 66 55 58 63 66 67 67 69 81 99 107 104 103 101 101 102 102 102
23 22 23 23 22 20 18 18 19 19 18 17 16 18 19 17 15 14 13 14 16 19 20 19 19 19 20 21 19 18 19 18 18 17 17 17 17 17 17 18 21 23 24 26 29 28 27 28 31 38 46 52 49 48 55 56 53 51 48 54 60 61 66 75 89 99 101 103 102 98 97 97 99 101 99 102 100 82 65 58 57 61 60 56 55 53 60 82 102 105 102 102 100 100 102 103 104
24 23 23 23 22 20 19 19 19 18 17 16 17 20 21 19 16 15 17 20 25 30 28 25 25 25 24 23 22 21 21 20 19 19 18 17 18 18 19 21 24 25 27 31 31 28 34 51 67 76 83 90 89 85 82 76 67 61 56 55 51 47 46 48 62 79 91 101 101 94 92 92 94 96 97 97 88 69 57 54 51 49 46 41 40 42 56 83 101 101 100 101 100 100 101 102 103
23 22 22 21 20 19 19 19 18 18 19 18 20 26 26 22 18 19 25 31 35 36 31 28 27 28 27 25 24 22 21 20 21 24 22 19 18 19 21 22 26 28 28 30 38 53 72 90 100 99 99 101 103 103 100 96 90 80 70 67 66 63 59 55 56 64 72 79 78 70 69 75 79 82 85 82 73 61 50 42 37 35 35 32 34 43 64 89 101 100 101 101 100 100 101 102 101
21 20 20 20 20 21 22 22 22 24 25 24 27 34 33 27 26 30 36 38 38 35 31 29 28 29 29 27 26 25 25 23 23 25 22 21 20 22 23 24 29 27 32 54 75 93 102 101 101 100 101 101 99 101 101 101 102 99 93 87 85 80 73 65 59 55 53 53 53 54 62 72 77 77 75 70 60 48 37 30 29 28 26 27 31 41 62 88 100 100 100 101 102 103 102 102 102
21 22 24 26 28 28 29 29 28 28 27 28 34 42 41 35 36 38 38 37 36 34 30 30 31 32 34 35 32 29 29 27 25 25 24 24 23 22 23 27 38 43 62 95 103 102 101 96 100 101 101 101 98 100 100 99 100 101 102 100 97 94 89 84 75 69 67 67 70 75 79 78 72 67 59 51 42 33 28 26 26 24 23 26 28 32 42 60 74 81 90 97 101 103 103 100 100
31 36 37 36 35 33 33 32 31 31 32 36 43 48 46 43 42 39 36 34 34 35 33 36 40 40 43 44 39 35 35 34 31 29 27 28 27 33 42 51 68 81 97 109 95 93 101 97 99 101 99 100 99 100 101 100 100 100 101 101 101 101 100 100 97 96 92 90 89 82 74 65 56 49 41 35 30 27 26 25 26 26 26 25 26 29 31 36 45 57 77 97 102 100 101 101 101
47 48 44 40 38 37 40 41 42 44 45 47 48 48 45 43 40 35 32 31 36 43 45 47 50 54 57 52 45 44 44 41 37 34 30 32 43 59 75 87 98 103 107 106 90 91 103 100 99 101 99 100 100 101 102 101 101 101 102 101 101 101 101 102 102 100 95 90 83 70 60 52 44 38 32 29 27 26 28 29 31 32 32 30 28 28 30 32 36 44 61 85 100 101 99 100 101
59 58 54 50 50 49 52 52 51 51 50 48 45 43 41 38 35 34 36 38 45 54 57 56 60 70 69 56 51 52 52 49 43 39 33 34 51 68 82 96 106 106 104 103 94 95 102 100 100 100 99 100 100 100 101 100 100 100 101 101 101 101 101 102 100 95 89 81 68 56 48 41 36 32 28 26 28 29 31 32 34 36 38 39 37 34 33 34 35 39 46 58 77 93 100 101 101
68 64 60 57 55 53 53 53 50 48 46 43 44 43 38 36 35 36 41 44 49 57 59 58 63 71 68 59 61 62 58 57 50 44 39 36 48 62 74 92 106 108 105 100 96 99 102 99 99 100 101 100 99 100 100 100 100 100 101 101 101 101 100 98 93 86 78 68 56 46 39 34 31 30 28 29 30 31 33 35 37 40 42 44 45 45 43 41 40 40 41 42 50 65 79 89 99
65 61 58 55 52 50 48 47 45 42 40 40 45 48 46 47 47 42 41 43 49 62 67 62 62 66 64 65 73 73 65 63 58 51 46 41 48 65 79 90 102 108 105 101 101 101 99 99 100 100 100 100 100 101 101 101 101 101 102 101 101 100 98 93 85 76 68 59 49 40 34 33 32 32 32 33 33 33 34 36 39 41 44 47 48 49 49 48 47 45 43 42 44 52 63 74 90
58 56 54 51 48 46 44 42 39 37 37 39 46 57 63 65 61 49 44 44 49 63 71 69 67 65 62 66 75 79 74 69 65 59 53 45 46 70 89 90 95 105 104 100 102 103 99 100 100 99 100 100 100 100 101 101 101 101 101 100 99 95 90 83 74 66 60 54 45 37 34 35 37 37 36 37 37 37 37 37 39 41 44 47 48 51 52 52 52 51 49 47 48 63 82 90 95
53 51 49 47 45 42 40 38 36 33 34 40 49 61 68 66 59 49 44 44 46 54 65 71 70 64 59 62 68 74 79 77 72 65 61 54 49 66 92 99 98 101 102 100 101 101 98 98 100 99 100 100 99 100 101 101 100 100 99 96 92 86 77 69 63 59 57 53 47 40 37 38 42 44 42 41 41 41 42 42 42 43 45 47 48 51 53 56 56 56 56 54 53 65 87 98 97
48 46 46 46 43 42 41 39 38 38 40 47 55 58 58 56 52 46 43 46 47 49 59 70 70 63 59 61 59 60 70 78 77 71 67 65 62 66 81 99 105 101 99 100 101 100 98 98 100 100 100 100 101 101 101 102 100 97 94 91 85 77 67 59 55 54 52 52 52 48 44 43 46 50 49 46 44 46 48 48 48 48 49 51 52 53 55 58 61 62 63 63 62 62 68 74 75
47 48 52 51 47 47 46 44 47 49 47 52 58 57 54 53 52 51 49 47 45 42 50 61 65 64 61 59 57 55 60 66 71 75 77 76 75 74 74 84 98 103 101 99 99 101 101 101 100 100 100 101 103 103 103 103 98 90 85 80 77 71 62 54 50 50 52 56 60 59 53 48 50 56 57 54 50 52 55 57 59 57 57 59 59 60 60 61 65 69 70 71 71 68 65 64 62
51 54 58 58 54 53 53 54 59 59 54 54 60 64 62 57 54 58 59 51 42 38 42 48 55 62 60 56 56 54 53 56 60 69 79 84 80 76 74 76 86 97 103 103 102 100 100 100 101 101 102 102 104 103 103 105 100 90 79 73 72 67 58 51 51 57 67 76 78 71 61 53 54 59 62 61 56 56 62 67 69 70 69 69 70 71 71 71 71 74 76 77 77 76 75 73 70
58 61 66 70 68 66 64 64 66 67 64 59 60 65 70 69 63 61 61 56 45 40 43 44 49 57 58 54 53 54 55 54 56 62 68 74 78 78 75 73 76 82 89 97 102 103 103 102 101 101 103 103 103 103 103 105 101 91 82 77 71 61 54 56 62 73 85 93 92 81 68 60 59 64 67 68 64 59 61 68 75 80 81 80 82 84 84 83 82 82 82 81 81 81 80 80 80
75 76 79 83 84 84 77 68 66 67 67 67 67 73 79 80 74 66 61 58 51 44 45 48 52 57 57 53 52 58 67 66 62 60 55 55 64 74 77 75 73 71 73 79 88 96 101 102 101 101 102 100 99 101 100 99 96 89 83 76 64 55 58 65 76 89 96 99 98 89 79 70 64 69 75 75 74 67 61 64 70 80 88 91 93 95 96 96 95 95 94 91 91 91 88 85 85
88 91 88 88 92 94 84 72 69 70 70 72 75 76 75 72 71 68 60 56 52 45 43 46 49 53 52 51 52 59 70 74 71 65 55 50 51 58 68 74 75 71 68 69 74 81 85 91 95 96 97 96 95 95 93 91 90 84 77 68 60 63 70 77 86 95 98 100 100 91 80 72 66 72 81 83 83 77 68 66 67 73 85 94 101 104 106 106 106 106 105 105 104 103 100 95 90
91 93 91 87 89 91 84 76 74 70 66 65 65 63 59 59 65 67 57 51 49 46 44 44 44 46 45 45 50 56 61 68 73 70 61 56 50 48 52 60 66 68 69 69 71 73 72 74 79 82 85 84 83 83 81 81 82 79 73 69 77 86 84 86 94 96 98 100 95 81 71 69 69 73 81 87 90 88 80 74 71 72 79 89 100 106 109 111 111 112 111 110 112 111 110 107 102
82 84 85 82 80 78 75 71 67 63 61 61 60 59 58 58 63 66 60 54 53 51 48 48 47 47 45 43 45 48 52 60 69 69 65 61 55 50 51 54 58 61 65 67 69 70 67 64 65 67 69 67 66 67 67 73 79 81 83 87 98 102 88 87 99 100 98 94 82 72 68 71 75 75 79 85 92 96 94 88 82 79 80 84 93 101 107 110 109 110 112 112 113 113 112 111 109
67 69 71 71 69 67 65 65 65 65 66 66 64 64 65 64 64 67 66 63 62 59 55 53 52 50 48 45 43 42 43 51 59 61 62 61 57 57 61 63 65 64 62 61 61 62 61 61 60 60 60 59 58 61 66 74 81 87 96 100 101 102 94 93 101 99 90 79 70 66 68 73 78 79 80 82 87 94 99 99 96 92 88 86 88 93 100 105 105 105 107 110 112 113 112 112 110
64 63 62 64 66 66 67 68 68 70 72 72 71 72 73 72 72 74 74 74 73 68 62 60 58 56 53 48 45 43 41 45 51 54 55 53 53 61 66 67 69 72 69 65 64 64 62 60 59 59 57 54 54 63 72 76 81 90 100 102 99 101 101 98 98 97 91 83 74 68 73 81 84 85 84 81 81 85 92 98 100 99 98 96 93 91 93 98 104 105 103 103 106 108 107 109 110
80 74 69 67 67 69 72 73 73 76 78 78 80 82 83 82 80 80 80 79 78 76 72 67 65 62 58 53 50 48 47 46 46 47 44 42 48 60 64 63 65 70 71 71 72 75 76 73 68 62 60 65 69 74 80 82 87 97 102 102 101 99 98 98 99 99 96 94 90 86 88 92 93 95 96 94 88 83 83 89 94 98 100 100 99 98 97 97 103 108 107 103 102 102 102 102 105
97 93 89 83 78 76 76 75 76 78 80 82 87 89 89 89 85 84 85 82 78 81 79 70 65 62 57 56 55 55 55 51 48 48 43 40 48 56 59 61 66 71 73 72 71 74 83 86 80 69 67 84 96 93 94 98 99 104 106 104 101 97 97 99 101 98 89 83 83 83 83 83 85 88 91 97 100 94 86 83 86 92 95 98 99 99 101 102 104 107 105 104 103 103 102 100 99
100 100 100 98 94 91 88 87 87 86 88 92 95 97 96 95 92 88 88 84 80 84 83 74 67 61 57 55 54 57 58 53 53 58 51 45 51 57 61 65 71 76 79 79 74 72 78 83 81 72 70 87 101 98 101 106 102 101 105 102 98 98 100 99 100 103 95 82 71 65 64 67 70 73 75 81 91 94 92 86 82 84 88 93 98 100 101 103 105 107 106 104 103 103 103 104 103
105 103 103 102 101 100 100 102 102 100 102 104 104 102 99 99 97 91 88 85 82 83 81 75 71 69 69 67 59 57 57 52 50 54 50 47 52 58 63 67 69 74 79 81 81 78 76 76 72 66 65 78 97 103 101 102 102 100 99 100 99 99 101 101 99 102 102 97 86 75 70 67 64 62 63 68 76 80 83 87 86 82 82 86 92 98 102 104 105 106 108 107 105 104 105 105 107
108 107 106 103 98 100 104 106 108 108 107 106 106 103 101 102 100 95 90 85 82 83 82 79 77 76 80 82 72 63 59 53 47 46 45 45 47 52 58 63 65 69 71 74 79 82 83 80 72 65 61 66 84 103 105 101 103 104 101 100 102 97 95 101 103 100 100 102 101 97 94 89 81 68 59 61 72 76 74 81 89 87 82 81 87 93 97 102 105 104 105 107 106 105 105 104 106
101 106 108 105 99 99 104 105 107 111 108 104 102 99 97 97 96 93 90 85 82 84 85 86 85 82 84 85 79 71 65 57 49 46 44 42 43 46 51 57 63 67 67 66 69 75 81 83 79 72 67 61 66 84 99 104 106 107 99 88 88 91 91 98 104 100 98 98 98 101 100 99 101 93 75 61 63 72 76 81 91 93 85 78 80 87 90 92 97 100 100 101 102 102 100 101 103
100 104 105 104 99 98 103 103 102 104 103 99 97 95 93 91 91 90 88 86 87 87 86 85 84 83 84 84 81 79 75 66 56 49 45 43 43 44 47 51 58 63 66 66 65 65 66 70 73 72 72 71 69 71 82 98 108 109 99 80 72 82 92 98 101 101 103 103 99 99 100 99 102 102 94 74 59 66 78 83 88 94 94 84 74 76 83 85 88 92 95 97 98 99 97 94 95
107 109 106 102 98 96 97 95 94 96 97 95 94 95 95 92 90 89 86 85 84 82 81 81 82 81 83 89 93 89 75 61 55 53 53 54 53 51 51 53 56 61 66 69 69 68 64 63 65 66 67 70 78 82 84 96 105 105 105 95 80 82 92 97 97 100 108 109 102 101 103 103 103 103 101 87 67 65 76 85 88 90 95 90 77 76 81 82 83 84 87 91 93 96 97 95 92
Wind_Speed
78 79 79 78 77 76 76 76 76 75 76 77 78 81 83 83 84 85 85 84 80 76 74 74 74 74 75 74 75 76 76 77 78 77 78 79 79 78 78 78 77 77 77 78 79 79 79 79 78 78 79 80 80 82 83 84 83 81 79 78 75 74 75 75 75 74 72 72 73 73 72 71 72 74 76 75 71 69 67 66 65 66 66 65 65 64 64 64 65 66 66 67 68 67 66 64 63
86 85 85 83 82 81 79 79 78 78 78 79 81 85 85 84 85 85 86 86 83 78 75 75 75 75 75 75 76 76 76 77 78 78 79 80 79 78 77 77 77 78 78 79 79 79 79 79 79 80 81 82 83 84 84 82 80 77 73 69 67 67 69 70 70 69 69 70 70 70 70 70 72 72 71 69 67 65 64 64 66 67 66 64 64 66 66 68 69 69 69 69 69 67 64 62 61
87 86 86 85 84 83 82 82 81 80 80 81 85 88 86 85 85 86 88 88 86 81 77 76 76 76 76 76 76 76 76 78 80 80 81 80 79 79 78 78 78 78 79 79 79 80 81 81 82 83 82 82 81 80 79 77 74 72 68 63 61 63 65 65 63 63 63 63 65 66 68 68 68 67 66 65 63 61 62 66 69 69 67 66 67 69 70 70 70 70 69 69 67 65 62 60 58
86 85 85 84 84 83 83 83 83 82 82 84 89 90 86 86 87 87 88 88 87 84 80 78 77 77 77 77 77 76 77 79 82 82 82 81 80 80 80 80 79 79 79 80 81 83 83 81 79 76 74 72 70 69 69 67 64 63 60 57 59 62 65 64 62 62 61 61 65 66 67 67 66 66 64 61 59 61 67 72 75 73 69 69 70 71 70 69 69 68 67 65 63 61 59 57 54
85 85 85 84 84 84 84 84 84 84 84 87 91 90 88 88 89 89 89 88 88 86 82 80 78 77 77 77 77 76 77 81 83 83 83 82 81 81 81 81 81 81 81 81 82 81 77 73 68 65 66 63 57 55 57 58 58 59 58 60 64 68 70 69 69 67 66 69 72 71 69 68 67 65 61 59 61 67 74 79 79 76 72 72 72 70 69 67 66 65 64 61 59 58 56 53 51
84 83 83 83 83 83 83 83 83 83 84 87 91 89 87 89 89 90 89 89 88 86 84 82 80 79 78 77 76 77 78 81 83 84 84 83 82 81 81 81 82 81 79 76 71 72 73 68 64 63 63 59 53 53 59 63 66 68 70 72 76 79 77 74 73 73 75 81 82 78 74 71 68 64 61 62 68 75 80 81 79 76 74 72 71 69 66 64 62 61 60 58 57 56 54 51 49
87 86 85 84 84 84 83 83 83 83 84 88 91 88 86 88 89 89 89 88 87 86 84 82 81 81 79 78 78 78 79 81 83 84 83 84 83 82 81 81 83 83 80 74 67 69 73 72 69 67 64 63 62 65 71 74 75 77 77 79 83 83 81 77 77 79 84 87 87 84 79 75 71 65 64 69 76 80 79 77 75 73 71 69 67 65 62 60 58 57 57 56 56 54 52 50 48
92 91 90 89 87 87 85 85 85 86 87 90 92 89 87 89 90 90 89 88 87 85 84 83 83 82 80 79 80 81 81 82 83 84 84 84 83 82 81 82 84 84 80 78 76 77 78 78 77 75 71 71 74 76 78 76 76 76 77 79 78 76 75 74 75 78 81 83 83 82 78 74 71 68 71 76 77 75 73 71 69 67 65 64 63 60 58 56 55 55 56 56 55 53 50 48 46
93 92 92 91 89 88 88 87 87 88 89 91 92 90 88 89 91 91 89 89 89 87 85 84 83 83 81 81 82 83 83 83 84 84 84 83 83 81 75 73 72 69 72 75 78 82 82 82 83 84 82 82 82 80 78 76 75 78 78 72 65 62 63 64 66 67 69 71 72 72 69 68 69 71 73 72 69 68 67 65 63 61 60 60 58 57 55 54 54 55 56 55 53 51 49 46 44
93 92 91 90 89 89 88 88 87 88 89 90 92 91 89 89 90 90 89 90 89 87 85 84 85 85 83 83 85 85 85 85 85 85 86 84 84 82 75 74 71 70 79 83 81 83 81 78 78 81 83 82 78 77 77 75 76 75 69 60 54 55 56 57 59 60 61 63 64 64 64 64 67 69 69 67 66 66 64 61 59 59 58 57 57 55 55 54 55 55 55 53 52 50 47 44 42
92 91 90 89 89 88 87 87 88 89 89 90 91 91 90 89 90 90 90 91 90 88 86 84 85 86 85 86 87 87 87 87 87 88 88 87 87 87 84 85 84 84 88 86 81 81 79 75 74 75 73 71 73 78 78 75 71 66 60 55 54 54 53 53 53 53 55 57 59 60 60 61 63 65 66 66 66 64 61 59 58 58 58 57 56 55 55 55 55 54 53 52 51 49 45 42 40
90 90 89 88 88 88 87 87 88 89 89 90 91 92 91 90 91 91 91 92 91 89 87 85 86 86 87 88 87 87 88 88 89 91 90 90 89 89 89 88 88 86 83 80 80 81 82 82 80 79 75 73 80 81 76 73 70 64 61 60 58 55 52 51 49 49 51 53 54 54 54 56 58 61 62 63 62 60 59 58 59 59 57 56 54 54 54 55 55 54 53 51 49 46 43 41 39
90 89 88 88 88 88 87 88 89 91 90 90 92 93 92 91 91 92 92 92 91 90 89 87 86 88 89 90 89 89 90 90 91 94 92 91 90 90 90 90 88 86 81 81 83 82 84 85 83 82 79 77 77 71 68 71 73 70 66 62 60 58 53 50 47 48 51 51 50 50 51 54 58 59 59 59 59 58 57 57 57 56 54 52 52 53 55 56 56 54 51 48 45 43 41 39 37
90 88 88 88 88 88 88 89 91 92 92 91 92 93 93 92 92 93 93 93 92 91 90 89 88 89 90 91 91 91 92 93 93 95 93 91 90 90 91 91 90 86 84 85 85 83 84 82 80 78 74 70 67 66 69 72 72 72 69 63 62 62 55 50 48 50 53 51 50 51 53 55 56 56 56 58 59 57 56 54 52 51 51 51 52 55 57 57 55 52 48 45 43 40 38 37 36
90 88 88 88 88 89 89 90 92 93 93 92 92 93 94 93 92 93 93 93 93 92 92 91 89 89 92 94 94 95 95 95 95 95 94 93 92 92 93 92 90 85 83 86 86 84 85 85 86 86 81 79 80 82 82 77 73 72 70 65 65 64 56 53 52 54 54 51 51 52 52 51 51 52 54 57 58 55 52 50 49 50 51 52 56 58 58 56 53 50 46 43 41 38 36 36 35
91 89 89 89 90 91 91 92 93 95 94 92 93 94 95 94 93 93 93 94 94 93 92 91 91 92 94 96 95 96 96 96 97 97 96 95 94 94 93 92 90 87 86 88 84 82 87 92 96 96 93 93 94 94 89 83 79 76 73 70 73 68 56 54 54 53 52 51 52 51 50 50 50 52 55 57 57 54 50 50 49 50 53 56 59 58 56 53 50 48 45 42 39 37 37 36 35
92 91 91 91 93 93 94 94 95 97 96 93 94 96 96 95 94 94 95 96 96 94 93 94 95 96 96 97 96 96 96 97 98 98 97 96 95 95 94 93 91 91 91 90 86 85 90 95 97 96 95 94 94 93 89 84 81 79 79 80 81 71 57 55 56 55 55 55 55 54 54 55 56 58 60 60 59 54 48 48 49 51 55 57 57 55 51 49 48 46 44 42 39 37 37 36 36
93 93 92 93 95 96 96 97 98 99 97 95 95 97 97 96 95 95 97 98 98 98 98 97 97 97 97 98 98 98 97 98 99 98 97 96 96 95 95 94 91 91 92 92 91 92 94 95 95 94 93 92 91 90 87 84 80 79 80 79 78 73 67 67 69 69 67 66 65 63 62 62 63 64 64 64 63 56 48 46 50 53 54 54 54 51 48 47 47 47 45 43 40 39 38 38 37
94 94 93 95 97 97 98 99 100 100 98 96 95 97 97 96 96 97 100 102 102 101 99 97 97 98 98 98 98 98 98 98 99 98 97 97 97 96 95 94 91 90 91 91 91 91 91 91 91 91 90 90 89 86 83 81 78 77 76 75 77 81 82 82 81 79 77 76 73 71 70 70 70 68 67 67 66 61 52 49 53 53 52 52 52 50 47 48 49 50 49 45 42 41 40 40 40
94 93 93 96 97 97 98 99 100 98 97 95 94 96 96 96 98 99 101 103 102 101 99 96 97 98 98 99 99 98 98 98 98 98 97 96 96 95 94 93 90 88 88 88 87 87 87 87 86 87 87 86 84 81 77 75 74 73 72 73 76 82 85 86 84 82 80 79 76 74 74 74 74 72 71 71 69 64 56 54 56 54 54 53 51 50 49 49 50 51 50 46 44 43 42 42 42
93 92 93 95 95 95 97 98 97 96 96 95 94 95 96 97 100 101 100 101 101 100 98 96 97 98 98 98 98 98 98 98 97 96 95 94 93 92 91 90 87 85 84 83 82 83 83 82 82 82 82 81 79 76 73 71 71 71 71 72 74 77 79 79 78 77 76 75 74 73 73 74 74 73 71 69 67 64 61 60 60 59 59 56 52 51 51 51 51 51 49 46 45 45 45 44 43
90 90 91 93 93 93 95 96 95 95 94 94 93 95 97 99 100 100 99 99 99 98 97 96 96 97 97 96 96 96 95 95 94 93 91 90 88 87 86 85 83 80 80 79 79 79 79 79 78 78 77 76 74 72 71 70 70 71 72 72 72 71 69 68 68 68 67 67 68 69 70 71 72 70 66 65 66 65 66 67 66 64 63 60 54 51 51 52 54 54 51 49 48 48 46 44 42
87 87 89 90 90 91 93 94 94 93 93 93 94 97 99 98 98 98 97 96 95 95 95 94 95 96 95 93 92 92 90 89 88 86 85 83 82 81 79 78 76 75 75 76 76 76 75 75 75 74 74 73 72 70 70 70 71 72 73 72 71 68 66 64 63 63 64 65 66 68 69 69 69 66 63 64 67 68 70 71 70 68 65 62 58 54 53 53 55 57 55 53 52 51 49 47 44
83 84 86 88 89 89 92 92 92 91 91 92 94 96 97 96 96 96 93 91 89 90 91 91 91 92 90 88 86 85 83 81 80 79 77 76 75 74 72 71 70 69 69 71 73 72 70 71 72 72 71 71 71 70 71 72 72 72 73 72 71 69 65 63 61 61 62 64 65 67 68 68 68 67 66 67 69 71 72 72 71 70 67 63 61 59 56 53 54 57 59 58 55 54 52 49 46
79 81 83 85 85 86 88 88 88 88 87 88 91 92 92 92 91 90 87 84 83 83 85 85 86 86 84 81 79 77 76 75 74 73 71 70 69 68 67 66 65 64 65 67 68 66 66 69 72 71 69 69 70 71 71 72 72 72 72 72 71 68 63 59 58 58 59 61 63 66 67 68 69 70 70 71 72 74 73 73 73 72 69 66 63 60 57 54 53 56 59 60 56 53 50 47 47
75 77 78 78 79 81 82 82 83 83 82 82 84 85 85 85 83 82 79 77 76 77 79 79 80 80 77 74 73 72 71 71 69 68 67 65 64 64 63 63 62 62 62 63 63 63 64 69 71 70 68 67 68 70 71 71 73 73 73 72 69 66 64 61 60 60 59 59 61 64 66 68 69 70 71 71 72 73 73 74 75 75 73 70 67 63 59 55 54 55 58 58 54 50 48 47 47
73 73 74 74 75 76 77 77 76 76 76 77 78 79 80 79 77 77 74 71 72 74 75 75 75 74 71 69 69 68 67 66 65 63 62 61 60 59 58 58 58 59 60 60 60 61 63 66 68 69 67 65 66 68 70 72 73 74 75 73 69 67 67 66 64 61 58 57 59 62 65 67 69 70 71 71 71 74 75 76 77 77 76 74 69 65 62 58 56 56 57 57 53 50 48 48 48
74 73 73 73 74 75 75 73 72 72 72 73 73 75 77 76 75 74 69 67 69 71 71 70 70 68 66 65 64 63 63 62 61 60 58 57 56 55 54 54 55 56 57 57 57 57 59 62 63 63 61 60 63 67 70 72 73 75 76 76 75 75 74 73 70 65 63 63 65 69 69 69 70 72 73 74 76 77 78 78 78 76 74 72 68 64 61 58 57 57 56 55 51 49 49 49 49
75 73 73 73 74 75 73 70 70 71 71 71 70 71 74 73 72 69 64 63 66 66 65 64 64 64 63 61 59 58 58 57 57 56 54 53 53 53 52 51 52 55 55 54 53 51 52 55 57 56 53 52 57 62 67 70 72 75 77 78 79 80 81 80 78 75 74 75 78 81 78 76 76 77 80 81 81 81 80 78 76 73 71 69 66 63 60 58 56 55 54 52 50 49 49 51 51
73 72 71 72 73 72 71 69 69 70 69 68 66 68 70 70 68 64 59 59 60 60 59 59 60 59 58 57 55 53 53 52 51 52 51 50 49 48 48 48 49 52 51 50 48 46 47 50 51 50 48 52 58 61 63 65 69 71 73 76 79 81 83 84 84 83 83 83 84 84 83 82 82 84 85 85 84 81 78 75 72 70 68 66 64 62 60 57 56 54 53 51 50 50 51 53 53
70 69 69 69 70 69 68 67 66 66 65 64 63 65 66 66 63 58 54 54 56 56 55 56 55 54 53 52 51 49 48 46 45 47 47 45 45 44 44 44 46 48 47 45 42 40 41 42 43 42 44 50 55 58 59 60 63 66 69 72 75 78 80 81 82 83 83 83 83 82 83 83 84 84 83 81 79 76 73 70 68 66 64 62 61 59 56 55 54 53 52 52 52 52 53 53 53
66 65 65 65 64 63 63 62 61 60 59 59 60 61 62 61 57 53 51 51 53 53 52 52 50 50 50 48 47 45 44 42 41 43 43 41 40 40 41 41 42 42 40 38 35 34 34 36 39 41 43 45 47 51 53 54 55 57 61 65 69 73 75 77 78 79 80 80 81 81 80 79 77 75 74 72 70 68 67 65 63 61 59 58 57 56 55 54 54 54 54 54 54 53 53 53 53
61 60 59 58 58 58 58 57 57 57 57 57 57 58 58 56 53 51 49 48 49 48 47 47 47 46 45 44 42 40 39 38 38 38 37 37 36 36 37 37 38 36 34 31 26 27 33 37 41 44 43 41 42 45 47 48 49 50 52 56 59 63 66 68 70 71 71 72 72 71 70 68 67 66 65 65 64 63 62 61 59 57 55 54 54 55 55 56 56 56 55 55 54 53 53 53 53
55 55 55 55 56 56 56 56 56 55 54 54 55 55 54 52 51 49 47 45 45 44 43 42 42 42 40 40 38 36 35 35 34 34 33 33 30 30 33 34 36 35 33 27 15 18 31 38 43 45 44 41 40 42 45 47 48 48 50 51 52 54 56 57 58 59 60 61 62 62 62 62 61 61 61 60 59 58 57 56 55 53 53 52 53 54 55 55 56 56 54 52 50 51 52 52 52
51 53 54 54 54 53 53 53 52 50 49 50 52 53 51 50 50 48 45 42 41 39 38 38 37 37 37 37 35 32 32 32 31 31 31 29 27 28 32 35 38 37 37 32 21 19 30 34 36 38 40 39 38 40 42 43 45 47 49 50 50 50 51 52 53 55 56 56 57 58 59 58 58 58 57 56 54 54 53 52 51 51 51 51 51 52 53 54 55 55 55 53 50 50 51 50 48
50 52 52 51 51 50 48 49 49 47 47 49 51 52 50 49 48 45 41 39 38 36 36 35 34 35 36 34 32 31 30 30 30 30 29 29 29 33 36 38 42 41 42 41 30 24 27 24 25 29 32 34 34 36 38 39 40 42 45 47 48 48 49 50 52 54 54 55 55 56 56 55 55 54 52 50 49 49 49 49 49 49 49 49 50 51 52 53 54 55 56 56 55 55 55 53 49
49 50 51 50 50 48 47 48 48 47 46 46 49 52 50 48 46 43 39 38 38 37 35 34 34 35 35 32 30 29 29 29 29 29 29 29 31 35 37 40 43 43 45 45 33 25 22 16 20 26 29 31 32 34 36 37 38 39 41 43 45 46 48 50 52 54 55 54 53 53 52 52 51 49 48 46 45 45 45 45 46 46 47 48 49 50 51 52 54 55 56 56 56 57 59 58 57
48 50 51 51 51 49 47 47 47 46 45 44 46 49 49 46 45 42 39 37 37 36 35 34 35 36 33 30 29 29 29 29 29 29 29 30 32 35 38 41 45 44 46 50 41 29 23 18 23 29 32 34 35 37 38 39 40 41 42 44 46 47 49 50 52 53 53 52 51 50 49 48 47 45 43 42 42 41 41 42 42 43 44 46 47 48 49 51 52 54 55 56 56 57 58 59 59
48 49 50 52 50 49 47 46 46 45 43 42 43 46 47 46 45 42 38 37 36 36 35 34 35 36 33 30 30 30 30 29 29 29 29 31 33 36 39 41 45 45 47 55 50 36 30 30 32 36 37 38 40 41 42 44 44 45 46 47 49 50 51 52 52 51 50 48 48 47 46 44 43 42 40 39 39 38 38 39 40 40 41 43 44 46 47 48 50 51 53 54 56 56 56 57 57
47 48 49 51 50 48 46 45 45 43 41 41 42 44 47 48 47 43 38 36 36 35 35 34 36 36 33 31 32 32 31 31 30 29 29 30 33 36 40 42 44 43 45 55 57 47 43 44 45 45 44 43 44 45 47 49 49 49 49 50 51 53 53 53 52 49 47 46 45 45 45 43 41 39 38 37 36 36 36 37 37 38 39 40 41 43 44 46 47 48 50 51 53 55 57 57 58
46 47 48 50 49 47 46 44 42 41 40 41 42 45 47 49 47 43 39 37 37 35 34 36 36 35 33 33 34 33 33 33 31 30 30 30 33 36 40 43 45 44 44 52 60 59 55 54 54 53 51 50 49 50 51 53 54 53 53 53 54 54 54 54 51 48 46 45 44 45 44 43 41 38 37 35 35 34 34 35 35 35 36 38 39 40 41 42 44 46 47 48 50 52 55 56 58
45 45 46 48 48 46 45 42 40 40 40 41 43 44 46 47 46 44 41 39 37 35 34 35 35 34 34 35 35 35 35 34 33 32 31 32 34 37 40 44 47 48 47 50 57 62 62 61 60 59 58 56 55 54 54 55 57 57 57 57 56 56 56 55 51 47 44 44 45 46 46 44 41 39 36 35 34 33 33 33 33 34 34 36 37 38 39 40 41 43 44 46 47 48 50 52 53
43 44 45 47 46 45 43 41 40 40 40 41 42 44 45 45 45 44 43 41 36 33 33 33 33 34 35 35 35 36 36 35 34 34 35 36 38 39 40 43 47 51 52 52 55 58 60 62 62 62 61 60 59 57 55 55 57 58 59 59 58 58 58 54 48 44 43 44 45 46 46 44 42 40 38 35 33 32 32 32 32 32 33 34 35 36 37 38 39 40 41 42 44 45 45 46 47
42 43 43 45 45 43 42 40 40 40 40 40 41 42 43 44 44 43 42 41 36 30 29 29 29 32 34 34 34 35 35 36 36 37 39 40 40 41 42 43 46 50 54 56 57 57 59 60 61 62 62 61 60 58 55 54 55 57 58 57 56 57 55 49 44 43 44 45 44 45 46 45 43 41 39 37 34 33 31 31 31 31 31 32 33 34 35 37 37 38 39 40 40 41 42 42 43
41 42 42 43 43 43 42 41 40 39 38 38 39 39 40 41 43 42 41 39 36 30 27 26 27 30 32 32 32 32 34 36 37 39 40 40 41 43 44 45 46 49 52 56 58 60 61 61 62 63 63 61 60 58 55 54 55 56 56 56 56 54 49 44 43 45 46 47 46 45 47 48 44 41 40 38 36 35 33 31 31 30 31 31 32 33 34 35 36 36 37 37 38 38 39 40 40
40 42 42 42 42 44 43 40 38 37 36 36 37 37 37 39 41 43 41 38 36 32 27 27 28 29 31 31 31 32 33 34 37 39 39 39 42 43 44 45 47 48 51 53 56 60 63 64 64 64 65 64 62 59 56 54 55 56 56 56 53 49 45 44 46 47 48 47 47 47 49 48 45 41 40 39 37 36 35 33 32 31 31 31 31 32 33 34 35 35 35 35 36 36 37 37 38
40 42 42 41 41 42 41 39 37 37 35 36 38 38 36 37 41 45 43 38 37 34 31 30 30 30 31 31 32 33 34 35 36 38 38 39 41 41 42 44 46 48 50 52 55 58 61 63 63 63 64 64 63 60 56 54 54 54 53 52 48 45 45 46 48 48 48 48 48 48 47 45 43 41 40 39 38 37 36 35 34 32 31 31 31 31 32 33 34 34 35 35 35 35 35 35 36
41 41 42 41 40 41 41 40 39 38 37 38 39 38 37 38 42 46 44 40 39 37 34 33 33 32 33 33 33 34 35 36 38 38 37 37 37 37 38 41 43 46 49 52 54 56 58 59 60 60 61 61 59 56 53 52 51 51 49 48 47 47 47 47 48 48 48 47 46 44 42 41 40 40 39 39 39 38 37 37 36 35 34 32 31 31 31 31 32 33 34 34 34 34 34 34 34
41 41 42 42 41 41 41 41 40 40 41 41 39 38 39 40 42 45 45 44 42 40 38 37 36 36 36 36 35 36 37 38 40 39 38 37 35 34 35 37 40 43 46 49 51 53 54 54 54 55 57 57 55 51 50 50 50 50 48 46 47 48 46 45 45 45 43 42 41 39 37 36 35 36 37 38 39 39 39 38 37 37 36 35 33 32 31 31 31 32 33 33 34 34 34 34 34
41 43 42 43 43 42 43 43 42 42 43 43 41 41 43 43 43 45 47 46 45 43 41 41 40 40 40 39 37 38 39 40 41 41 40 38 35 35 36 37 38 40 42 44 45 46 47 47 48 50 51 51 49 47 47 49 50 50 48 47 47 45 42 38 37 38 37 37 37 35 34 33 32 33 33 35 37 39 40 40 39 38 38 37 36 35 33 32 32 32 33 33 34 35 35 36 36
43 43 43 44 45 45 46 46 44 45 45 45 44 45 46 46 46 47 49 49 47 46 45 44 44 43 43 41 40 40 41 43 43 42 41 39 37 38 39 39 38 39 40 41 41 41 41 42 43 44 41 39 40 42 44 46 48 48 48 48 46 43 40 37 35 35 35 35 35 35 35 34 34 33 33 34 35 37 39 40 40 40 39 39 38 37 36 35 34 33 34 34 35 35 36 37 37
44 45 46 47 47 47 48 48 47 48 48 47 48 48 49 49 49 49 51 51 49 49 49 48 46 46 44 44 44 44 45 46 44 42 42 40 40 41 41 40 40 40 40 41 40 39 39 39 40 39 34 31 34 38 42 45 46 47 49 48 44 42 42 42 39 39 39 39 38 37 37 38 37 36 36 36 35 36 37 39 40 41 41 40 40 39 39 38 37 36 36 36 37 37 37 37 38
47 48 50 50 49 49 49 49 50 49 49 50 51 51 51 52 52 51 53 53 50 50 51 50 49 48 47 47 47 47 48 47 44 43 44 43 42 43 43 42 42 42 43 42 42 41 41 41 41 38 35 35 38 39 42 45 45 46 47 45 42 41 42 42 42 42 43 44 44 43 41 41 41 40 40 39 38 37 37 38 38 40 41 42 41 41 41 41 40 39 39 38 39 39 39 39 39
51 52 53 53 51 51 51 52 52 52 52 53 54 54 53 53 54 54 54 53 51 51 52 51 51 50 50 51 52 51 50 50 47 47 48 46 45 45 45 45 45 45 45 45 44 44 44 44 43 40 38 39 42 42 45 48 47 48 49 46 42 40 42 43 44 44 45 46 47 48 47 46 45 45 44 43 42 41 40 40 39 39 40 41 42 43 43 43 43 42 42 41 41 41 41 41 41
54 55 56 56 54 52 52 54 55 55 55 56 56 56 54 54 56 56 55 54 52 52 52 52 52 52 52 54 56 54 53 53 51 50 50 49 48 47 47 47 47 47 47 47 47 46 46 46 46 43 42 42 44 45 47 48 49 52 54 51 46 44 43 45 46 46 47 48 49 51 52 50 49 50 50 49 47 46 44 43 42 41 41 41 42 43 44 44 45 45 45 44 44 43 43 43 43
56 57 58 58 56 54 55 56 57 57 58 57 57 57 56 56 58 58 57 56 54 54 55 55 55 55 55 56 57 56 56 56 54 52 51 50 49 48 49 49 48 49 49 49 49 49 49 49 48 47 45 46 47 48 48 47 47 53 57 57 53 50 48 48 48 47 48 49 51 53 54 53 52 53 54 54 52 50 48 45 44 44 43 42 42 42 44 45 46 46 47 47 47 47 46 46 45
57 59 60 61 59 57 58 59 59 59 59 59 59 59 59 59 60 60 59 57 56 57 57 57 57 56 56 57 58 57 57 57 55 54 52 50 49 49 49 49 49 50 50 50 50 50 50 50 50 49 48 49 50 51 50 49 48 52 57 59 57 54 53 54 53 51 52 54 55 56 57 57 55 56 57 57 55 53 51 48 46 45 45 44 43 42 43 43 45 46 47 48 49 49 49 49 48
60 62 64 64 62 61 62 62 61 61 61 62 61 62 62 62 62 61 60 59 58 58 58 58 57 57 56 56 57 58 58 57 54 53 52 50 50 49 48 49 49 49 50 50 50 51 51 51 51 51 51 51 52 53 53 52 53 54 55 57 58 56 56 58 59 59 61 62 60 61 62 62 61 60 58 58 57 55 52 50 48 47 46 45 44 43 44 45 45 46 46 47 48 49 50 51 51
Wind_Direction
268 269 270 271 271 271 271 271 271 272 272 273 272 270 270 271 273 275 276 277 277 278 278 279 279 279 280 280 280 281 282 282 282 282 281 280 281 282 283 284 285 285 285 286 287 288 289 290 292 293 294 293 293 293 292 292 292 292 293 293 294 295 295 293 292 292 293 292 292 293 294 294 293 294 296 296 297 299 299 300 300 299 298 298 299 300 300 300 301 301 300 301 301 302 302 302 302
268 268 269 270 270 270 271 271 271 271 272 272 271 269 270 272 273 275 276 276 277 277 277 277 278 278 279 279 279 280 281 281 281 281 280 281 282 283 283 284 284 285 286 287 288 289 290 291 292 293 292 292 292 292 291 291 291 292 293 294 295 297 298 296 293 292 292 292 292 294 294 295 295 296 296 296 296 298 299 300 300 299 297 297 299 300 300 300 300 300 300 300 300 301 302 302 303
267 268 269 269 270 270 270 271 271 271 271 271 270 269 271 273 274 274 274 275 276 276 276 277 277 278 278 279 280 280 280 281 280 280 280 282 282 283 284 284 285 286 287 288 289 290 291 292 292 291 291 292 291 291 291 293 293 293 293 294 295 298 300 298 295 294 293 294 296 297 297 296 296 297 297 296 295 296 299 301 302 300 296 295 298 300 301 300 299 299 299 300 300 301 302 302 303
267 268 268 269 269 270 270 270 270 271 271 270 269 270 272 273 272 272 273 275 276 276 276 276 276 277 279 279 280 280 280 280 280 280 281 282 283 284 285 286 287 288 289 290 291 291 291 292 293 293 294 294 293 294 295 296 296 295 293 293 295 299 300 297 294 294 293 295 298 299 299 297 296 296 296 295 294 296 299 301 301 299 295 294 297 301 300 300 299 299 299 300 301 301 302 303 302
266 267 268 268 269 269 270 270 270 270 270 270 269 270 272 272 272 272 273 274 275 276 276 276 277 278 279 279 280 280 280 279 279 280 281 282 284 285 286 288 289 290 291 292 293 292 291 293 295 296 296 294 292 296 298 296 296 295 293 293 295 299 299 295 292 291 291 293 296 297 298 297 295 295 295 294 294 297 299 300 299 297 295 294 297 300 300 299 299 299 299 300 301 302 302 302 301
267 267 268 268 269 269 269 270 270 270 269 269 269 270 271 272 272 272 272 273 274 275 277 278 278 278 277 278 279 279 279 279 280 281 282 284 285 286 288 289 290 291 292 293 291 291 292 292 292 292 292 290 286 289 294 293 293 293 293 292 293 294 295 293 291 290 290 292 293 293 294 295 294 293 292 293 294 297 297 297 297 296 296 296 297 299 299 299 298 299 300 301 302 302 302 301 300
266 267 267 268 268 268 269 269 269 269 269 268 269 270 271 272 272 272 272 273 274 275 276 277 277 277 277 278 278 278 278 279 280 282 283 285 286 287 288 290 290 291 291 287 283 283 286 287 287 286 286 285 283 286 291 292 293 294 293 293 292 291 291 290 289 289 290 291 291 291 291 292 292 289 290 293 295 296 296 296 296 296 296 296 297 298 299 298 298 299 300 301 301 301 300 300 300
266 266 267 267 268 268 268 268 268 268 268 268 269 270 270 271 271 271 272 273 273 274 274 275 276 277 277 278 277 277 277 278 280 282 283 284 285 287 289 290 291 290 288 285 281 280 281 283 284 283 281 282 283 285 289 292 293 293 293 295 294 291 289 288 288 290 291 292 292 292 291 290 288 287 291 294 295 295 295 296 296 296 296 296 297 298 298 298 298 299 300 301 300 300 299 299 299
266 266 267 267 268 268 268 268 268 268 268 268 269 270 270 270 271 272 272 272 272 273 273 274 275 276 277 277 277 276 277 278 279 280 281 282 283 285 287 288 289 287 286 288 287 286 284 283 283 282 280 281 283 283 287 290 291 291 293 295 294 291 290 291 293 295 296 296 294 293 292 290 286 287 291 294 294 294 294 295 295 296 296 297 297 297 297 297 299 300 300 300 299 298 298 298 298
265 266 267 267 268 268 268 269 269 268 268 269 269 270 270 271 272 272 272 272 272 272 273 274 275 276 276 276 275 276 277 277 277 278 279 280 281 282 281 281 280 280 285 289 289 289 289 287 285 284 281 282 283 283 287 291 291 292 293 293 293 292 292 294 296 298 299 298 296 294 292 290 288 289 291 292 292 292 292 294 295 296 297 297 297 297 297 297 299 300 300 299 298 297 298 298 297
265 266 267 267 268 268 268 269 268 268 269 269 269 270 270 270 271 272 272 272 273 273 273 274 275 276 276 276 276 276 276 276 276 276 276 277 279 280 280 279 279 280 284 288 287 287 287 286 286 285 283 282 284 286 290 291 290 290 291 292 292 292 293 294 296 299 301 301 299 296 295 293 292 291 291 290 290 290 291 293 294 295 296 297 297 297 297 299 300 300 299 298 297 296 297 297 296
265 266 267 267 268 268 268 268 268 268 268 268 269 269 270 270 271 272 273 273 274 274 274 275 275 276 276 276 276 275 275 275 275 276 276 277 279 280 280 281 281 282 284 284 283 283 282 283 283 282 281 281 285 287 286 285 285 287 290 292 290 289 291 293 296 299 300 302 301 299 298 297 295 294 293 292 291 291 292 293 294 294 296 297 297 298 299 300 301 300 299 297 295 295 296 297 295
266 266 267 267 268 268 268 268 268 267 268 268 268 269 270 271 272 273 273 274 274 275 275 275 276 276 276 275 275 275 275 276 276 277 277 278 279 280 280 280 281 281 282 280 279 280 281 281 281 281 282 283 284 281 279 281 284 285 288 289 288 288 288 291 293 293 294 297 298 297 297 296 295 294 294 293 293 293 293 294 293 294 296 297 298 300 301 302 301 300 298 296 294 294 296 295 294
266 266 267 267 268 268 268 267 267 267 267 268 268 270 271 272 272 273 273 274 274 275 275 275 276 276 276 275 275 276 276 277 277 278 278 279 279 279 279 280 280 281 280 278 277 279 281 280 279 280 283 283 279 275 275 279 281 282 282 284 287 288 286 286 286 286 288 290 292 294 295 294 293 294 295 294 294 294 294 294 294 295 297 297 298 300 302 302 300 298 295 293 292 293 293 292 293
265 266 267 267 267 267 267 267 267 267 267 268 270 271 272 272 273 273 274 274 274 275 275 276 275 274 274 275 276 278 278 278 277 277 278 278 278 279 279 279 280 280 278 278 278 279 279 277 277 276 277 277 275 275 276 276 277 276 275 278 284 286 283 280 281 283 285 287 289 292 293 292 293 296 298 298 297 294 292 293 294 296 297 297 298 300 300 300 297 293 292 290 289 289 289 290 293
266 266 266 267 267 267 267 267 267 267 268 269 271 271 272 273 273 273 274 274 274 274 275 275 274 273 274 276 277 277 277 278 277 277 278 278 278 278 278 279 279 278 277 277 278 277 275 275 275 275 275 275 275 276 276 275 274 271 268 273 281 283 281 281 282 283 283 284 286 288 290 290 292 296 299 300 299 294 289 290 292 295 297 298 298 298 299 296 292 288 287 286 285 286 287 288 292
266 266 266 267 267 267 267 267 267 268 269 270 271 272 272 273 273 273 273 273 274 273 272 273 274 275 277 277 277 276 276 277 277 277 278 278 278 278 278 278 278 278 277 277 276 275 274 275 275 275 275 274 275 276 277 276 273 269 267 272 277 277 277 281 283 283 282 283 284 285 286 287 290 293 295 297 298 294 287 287 292 296 298 297 296 296 296 291 286 284 284 283 282 284 284 286 289
266 266 266 266 266 266 267 267 267 268 270 270 271 272 272 273 273 273 272 272 272 272 272 274 276 277 277 276 276 276 276 276 276 277 277 278 277 277 277 277 277 277 277 277 276 275 275 275 276 276 275 275 274 274 275 276 274 272 270 272 273 271 273 279 281 282 282 284 285 284 284 286 288 290 291 292 294 292 286 288 294 298 298 296 294 294 292 286 282 282 282 280 279 281 283 285 287
265 266 266 266 266 267 267 267 268 269 270 271 271 271 272 272 272 272 271 271 272 273 275 276 276 276 276 276 276 276 276 276 276 277 277 277 277 277 277 277 277 276 276 276 276 276 275 275 275 275 275 275 275 275 276 276 275 274 272 271 269 268 273 278 280 281 281 283 285 283 283 285 285 287 288 288 290 289 284 289 296 299 298 295 292 291 287 283 282 283 283 280 279 281 285 287 288
265 265 265 266 266 267 267 267 268 269 270 270 270 271 271 271 271 271 272 273 274 275 276 276 276 276 276 276 276 276 276 276 276 276 277 277 277 277 277 277 277 276 276 275 275 274 273 273 273 273 274 275 276 276 276 276 275 274 273 272 270 269 272 276 279 280 280 281 282 281 282 284 285 285 286 285 286 287 283 288 296 297 298 295 290 287 286 284 284 286 284 282 281 284 288 290 289
265 265 265 266 267 267 267 267 268 269 269 270 270 270 270 270 270 271 272 274 275 276 276 277 277 276 276 276 276 276 276 276 276 276 277 277 277 277 277 277 276 275 274 273 272 271 271 271 271 272 273 274 275 275 274 274 273 273 273 273 272 272 273 276 278 280 280 281 280 281 282 284 285 285 285 283 283 284 283 287 293 295 297 295 290 285 283 281 283 284 283 284 284 285 289 291 289
265 265 265 266 266 267 267 268 268 269 269 270 270 269 269 269 271 272 273 274 275 276 276 277 276 276 275 276 276 275 276 276 277 277 277 277 277 276 276 275 275 274 272 271 270 269 269 270 270 271 271 271 271 272 272 271 272 272 271 272 273 274 276 278 279 280 281 281 281 282 283 284 284 284 284 282 281 281 282 286 290 294 296 294 290 285 282 280 279 279 281 284 285 287 289 290 288
265 265 266 266 266 266 267 268 268 269 270 270 270 269 270 271 272 273 273 274 275 276 277 277 276 275 275 275 276 276 276 277 277 276 276 276 276 275 275 274 273 272 270 269 268 267 267 268 268 267 267 268 268 267 267 268 268 269 269 270 272 274 276 278 279 279 279 279 280 280 281 281 282 282 281 281 281 281 283 285 289 293 294 292 289 286 285 282 278 277 278 282 286 288 289 289 288
266 266 265 266 266 267 268 268 269 270 270 270 270 271 272 272 272 273 274 275 276 276 277 277 276 275 275 276 276 277 277 276 276 276 275 275 275 274 273 272 271 270 268 267 266 266 266 265 264 263 264 265 265 264 265 266 266 267 268 269 271 273 274 274 275 276 276 276 277 278 279 280 281 280 280 280 281 282 283 284 288 291 292 291 290 287 285 282 277 275 276 280 285 287 288 288 286
265 265 266 267 267 268 268 269 270 270 270 271 271 272 273 273 273 274 274 275 275 276 276 275 275 275 276 277 277 277 277 276 275 275 274 274 273 272 271 270 268 267 265 264 264 264 262 261 260 261 261 262 263 264 264 266 266 267 268 269 269 270 270 270 271 274 275 277 277 278 279 279 280 280 279 280 281 282 281 283 287 290 290 291 289 286 282 279 277 274 274 278 283 284 284 283 281
266 266 267 268 268 269 269 270 270 270 271 271 272 272 273 273 274 274 274 275 276 276 275 274 275 276 277 277 277 277 276 275 275 274 274 273 271 270 269 268 267 265 262 261 261 260 258 257 259 260 260 260 262 263 264 264 265 266 267 267 266 265 266 267 270 273 276 278 279 279 279 278 278 279 279 280 280 280 281 284 288 289 290 290 288 284 279 277 276 273 272 275 278 278 277 277 276
267 267 268 268 268 269 269 269 271 272 272 271 272 273 273 273 273 273 274 276 276 275 275 274 275 276 277 277 276 276 276 275 275 274 272 271 270 268 267 266 265 263 262 260 259 257 256 257 258 260 261 261 261 262 262 262 263 264 265 264 263 263 265 268 271 273 275 276 276 277 277 277 277 278 279 280 281 282 284 287 289 289 289 288 285 281 277 275 273 270 270 272 274 273 272 272 272
266 266 267 268 268 268 269 270 271 271 271 271 272 273 273 273 272 273 275 277 276 275 274 275 276 277 277 276 275 275 275 275 274 273 271 270 267 266 264 263 261 260 259 258 258 258 259 259 259 261 263 263 262 261 261 261 261 262 263 263 263 264 266 269 271 271 272 273 274 276 277 277 278 278 280 282 284 286 287 288 289 288 286 283 280 277 274 271 269 268 269 270 271 269 268 268 269
266 267 267 267 267 268 269 270 270 269 269 270 271 271 271 271 272 275 277 277 275 274 274 276 277 277 276 276 276 275 275 274 273 272 270 268 265 263 262 259 258 258 257 257 257 258 258 259 261 263 265 265 263 261 260 260 261 261 263 264 265 266 268 269 269 269 271 272 275 277 278 278 279 280 281 283 286 287 287 288 287 284 280 277 275 272 270 268 267 267 268 268 267 265 265 266 267
266 266 266 266 267 268 269 268 268 268 268 269 269 269 269 271 273 276 277 275 274 273 275 276 276 276 277 276 276 275 273 273 273 272 269 266 263 261 259 256 255 255 255 256 256 256 257 260 262 264 266 266 264 261 260 260 261 262 263 264 266 267 268 269 269 270 271 273 275 278 279 280 280 281 282 284 286 286 286 285 283 280 276 273 271 270 268 267 266 266 266 265 263 263 264 265 265
264 265 265 265 266 267 267 267 266 267 268 268 268 267 268 271 273 275 275 273 272 273 274 275 276 276 276 275 275 273 272 271 270 268 266 263 261 257 254 252 251 252 252 253 255 256 258 260 261 264 266 265 264 263 263 263 263 264 264 265 266 268 269 269 270 272 273 275 277 278 279 280 281 282 283 284 284 284 284 283 280 277 273 272 270 269 267 266 265 264 264 263 263 263 263 263 264
263 264 264 265 265 265 265 264 265 265 266 266 266 267 268 271 273 273 271 270 271 273 275 276 276 275 275 274 274 273 271 268 264 263 263 260 257 253 250 247 247 247 247 248 251 252 255 258 260 262 265 265 265 265 266 267 268 267 268 268 269 270 271 272 273 274 276 278 278 279 280 281 282 283 283 283 283 283 282 280 277 274 272 270 268 267 265 264 263 262 263 263 264 263 262 261 262
263 263 262 262 261 261 261 262 262 262 264 265 266 266 268 271 271 270 269 269 271 273 275 275 274 273 274 274 273 272 271 268 264 261 259 256 253 249 245 242 241 240 237 239 246 251 254 258 261 264 266 266 266 266 268 270 271 272 273 273 274 275 276 277 277 278 279 280 281 281 282 283 284 284 283 283 282 281 279 277 275 272 270 268 267 265 263 262 261 262 262 263 263 262 261 260 260
261 260 258 257 258 258 260 261 262 263 265 266 265 266 268 269 269 268 268 269 270 272 272 272 272 272 272 271 272 272 269 266 263 259 255 251 248 245 241 236 233 232 229 223 223 245 251 255 258 262 265 264 263 264 266 269 271 273 274 276 277 278 280 281 282 282 283 283 284 284 284 284 284 284 283 282 281 279 277 276 274 272 269 267 266 264 263 262 261 261 260 260 260 259 258 258 258
257 257 257 257 258 259 261 262 263 265 265 264 264 264 265 266 267 269 270 270 269 268 268 268 269 270 269 269 270 270 267 264 259 255 251 245 237 234 232 229 227 226 220 203 185 213 238 250 255 257 259 259 260 261 263 265 268 271 273 274 276 277 279 281 283 284 285 285 285 285 285 285 284 284 283 282 280 278 276 275 273 271 269 268 266 264 262 261 260 259 258 256 255 255 256 257 256
257 257 258 259 259 259 260 261 261 262 262 263 265 264 264 264 266 268 268 267 265 263 262 262 263 264 265 267 269 267 264 261 256 250 246 239 230 226 225 224 224 224 217 201 188 204 227 244 254 255 257 257 259 260 261 264 266 268 271 273 275 277 279 281 283 285 286 286 286 286 286 286 286 285 283 281 279 277 276 274 272 270 269 267 266 265 263 261 260 259 257 256 253 253 254 256 255
257 258 258 258 257 257 257 258 259 260 262 263 265 266 266 265 265 264 262 262 262 261 259 258 259 260 263 267 267 265 261 258 255 249 242 235 230 227 224 223 225 226 221 213 207 212 218 238 260 263 265 264 264 264 263 265 266 268 271 274 277 279 281 283 284 286 286 286 286 286 287 287 286 285 283 281 279 278 276 274 272 270 268 266 264 263 262 261 260 259 257 256 254 253 253 254 255
256 258 259 258 258 258 257 258 259 260 260 261 262 265 267 265 263 261 260 261 261 261 261 259 259 260 262 264 262 261 260 257 254 249 241 233 228 227 225 224 226 226 222 220 222 227 229 248 271 273 271 269 268 268 267 267 267 267 269 273 276 280 282 284 285 286 286 286 286 286 286 286 285 284 283 282 281 279 277 275 273 270 268 267 264 262 260 259 258 258 257 256 255 254 254 254 255
257 258 259 260 260 259 258 258 259 259 258 258 259 261 263 263 261 260 259 258 258 258 260 260 260 260 260 259 258 258 257 256 254 250 244 236 229 226 225 224 226 228 224 221 224 232 242 255 269 274 273 272 271 271 270 269 269 268 268 270 273 277 280 282 284 285 286 287 288 288 286 285 284 284 284 284 284 282 280 278 275 272 269 267 265 264 262 260 258 257 257 256 255 255 254 254 254
257 257 259 260 261 260 260 259 259 259 258 257 256 257 259 260 260 259 258 257 257 257 259 260 259 259 258 257 255 254 254 254 253 250 246 240 233 228 227 225 227 231 230 226 226 233 244 254 264 270 272 273 272 273 272 271 270 270 270 270 272 274 278 280 281 282 285 288 290 290 288 286 285 285 286 287 287 285 283 281 278 275 272 269 267 265 264 262 261 260 258 258 257 256 256 256 256
257 257 258 259 260 261 260 259 259 259 258 256 255 255 258 261 262 262 259 256 256 256 257 258 259 259 258 257 255 253 251 250 250 249 247 244 238 233 230 227 227 230 231 230 231 235 243 251 258 265 269 271 271 272 273 271 271 271 271 270 271 273 276 278 278 279 283 287 290 292 290 288 286 287 288 289 289 288 286 284 281 279 276 273 271 268 266 264 263 262 261 260 259 258 258 258 258
257 258 258 259 260 260 260 260 259 257 256 256 257 258 260 262 264 265 262 257 254 253 254 256 259 260 259 257 257 256 253 250 248 247 245 244 241 237 233 229 228 230 231 232 233 237 242 248 253 260 265 267 268 270 271 272 271 271 270 270 271 273 276 277 276 278 283 286 290 292 291 288 287 287 289 290 291 290 289 287 284 282 279 276 274 271 269 266 265 263 262 262 261 260 259 259 259
258 258 258 259 260 259 259 259 258 257 256 256 258 260 262 264 265 266 266 262 257 253 254 255 257 259 259 257 257 257 256 253 249 245 241 240 240 238 236 232 231 232 234 235 235 238 243 248 252 258 262 264 266 268 270 271 271 271 271 272 274 275 276 276 276 281 287 288 290 293 291 288 286 286 286 288 290 290 290 288 286 284 281 279 276 274 271 269 266 264 263 262 261 261 260 260 259
259 259 259 260 261 260 259 257 257 257 257 257 259 261 264 266 267 266 266 266 263 257 255 256 256 259 260 259 258 258 258 255 250 245 241 238 238 237 237 236 234 234 235 237 239 241 245 249 252 255 258 261 263 266 268 270 271 272 273 274 276 276 275 275 279 287 290 290 289 291 291 289 286 284 284 285 286 288 288 287 286 284 282 280 277 274 272 270 268 266 264 263 262 261 260 259 259
259 259 259 260 260 260 258 256 256 256 257 259 260 262 263 266 267 267 267 268 267 261 256 255 254 256 258 258 258 257 256 254 252 249 245 242 239 238 237 237 237 237 237 239 241 243 245 249 252 254 256 258 261 264 266 269 270 271 273 274 274 274 274 277 284 289 290 288 287 288 290 288 284 281 281 282 283 285 286 286 286 284 282 280 278 275 273 271 269 268 267 266 264 263 262 260 258
257 257 257 257 258 259 259 258 257 257 257 258 258 258 260 263 266 267 266 266 267 265 259 256 253 252 254 255 255 255 254 254 253 252 249 246 244 241 239 239 238 239 240 241 243 244 245 247 250 253 254 256 259 262 265 267 269 270 271 272 271 270 272 278 284 286 286 285 284 286 288 284 280 278 277 278 280 281 283 284 284 284 282 279 277 276 274 272 270 269 268 267 266 264 263 262 260
256 257 257 256 256 258 260 259 258 256 254 254 254 255 257 260 264 265 265 265 266 266 263 259 257 255 254 253 254 254 255 255 255 254 252 249 248 246 244 243 242 242 242 242 243 245 246 246 248 251 254 255 257 260 263 264 265 267 268 267 265 266 272 279 284 284 283 283 284 285 284 280 276 274 274 274 275 277 279 281 282 282 281 279 277 275 273 272 271 270 269 268 267 265 264 263 262
255 257 258 257 256 257 258 258 257 256 255 253 253 255 256 257 260 265 267 267 266 265 264 262 260 258 256 254 253 254 256 256 256 255 254 252 252 250 249 248 246 245 244 243 244 245 246 246 247 249 252 254 255 257 258 259 260 259 259 261 262 266 274 280 282 282 282 283 284 283 281 276 273 272 272 272 271 272 274 276 279 280 280 279 277 274 272 272 271 270 270 269 268 267 265 264 262
256 256 257 257 256 255 256 256 256 256 256 255 256 258 258 258 260 264 267 268 267 266 265 264 262 260 257 255 254 254 255 257 258 258 256 255 254 254 252 251 249 248 246 245 245 247 247 248 249 250 251 251 252 254 255 254 253 253 254 256 262 269 275 278 279 280 281 282 281 279 277 275 274 272 271 271 270 270 270 271 273 275 277 278 277 275 272 271 270 269 269 268 268 267 266 265 264
256 256 257 257 258 257 257 257 257 257 258 260 261 261 261 261 262 264 266 267 268 268 267 265 264 263 261 259 257 256 256 257 258 259 258 257 255 254 252 250 249 250 250 249 249 249 250 250 250 251 252 253 253 254 253 251 250 251 252 254 260 268 273 275 279 280 280 279 277 276 275 276 276 274 273 273 272 271 269 268 268 268 270 273 274 275 273 271 269 268 266 266 266 266 265 265 265
255 257 258 258 258 257 257 257 257 258 259 261 262 261 262 262 262 263 265 266 268 268 267 265 265 264 264 263 261 260 259 258 257 258 259 258 257 255 253 251 251 251 251 251 251 251 252 252 252 252 254 258 260 258 252 249 249 251 251 252 257 267 273 275 277 278 277 276 274 274 274 275 275 275 275 276 274 273 271 269 267 266 266 267 269 271 272 271 270 268 266 265 265 265 264 264 264
256 257 257 256 255 256 257 257 258 258 259 261 261 261 262 263 264 264 266 267 268 268 268 267 266 265 265 264 263 262 260 260 260 260 259 258 258 257 256 255 255 254 253 252 251 250 251 252 252 252 251 249 251 254 252 248 249 250 249 251 257 266 272 274 274 273 274 274 272 271 272 272 273 273 273 275 275 274 274 272 269 267 265 265 265 266 267 268 267 267 266 265 264 264 264 263 263
257 257 256 256 256 256 257 258 259 260 261 261 261 262 263 264 265 265 266 267 268 268 268 269 269 269 268 266 264 261 260 260 260 259 258 258 258 258 257 256 255 255 255 254 252 251 250 250 250 249 246 240 238 243 247 247 248 248 249 252 258 264 268 273 275 274 273 273 272 271 272 271 272 272 272 273 274 275 275 275 273 271 268 265 264 263 263 264 264 263 263 263 262 263 263 263 263
257 256 256 257 257 258 259 260 260 260 260 261 262 263 264 265 266 266 265 266 267 267 268 269 269 269 269 268 266 264 262 261 258 257 258 256 255 256 256 255 254 254 254 254 253 252 251 251 250 247 244 242 241 242 245 246 248 251 252 252 255 260 263 268 272 272 273 274 273 273 273 273 272 273 274 274 275 276 276 275 275 275 271 267 264 263 261 261 261 261 261 261 261 260 261 261 262
256 257 257 257 257 258 259 260 261 261 261 262 263 264 264 264 265 265 265 265 266 266 267 268 268 268 268 267 267 267 266 264 261 259 258 255 253 253 255 255 255 254 254 254 253 253 253 253 253 250 245 243 244 246 248 249 251 254 253 249 250 254 258 263 266 267 270 271 272 273 274 274 272 272 273 275 275 276 276 275 275 274 272 269 266 263 261 260 259 259 259 259 259 259 259 259 260
257 258 259 259 259 258 258 258 259 260 261 261 262 263 263 263 263 264 265 265 266 266 266 266 266 266 266 265 266 267 267 267 266 263 261 259 256 254 254 254 255 255 255 255 254 253 253 254 254 253 250 247 246 248 250 252 255 257 253 248 248 251 254 260 262 263 267 269 271 272 273 273 272 270 271 272 273 274 274 273 272 272 271 269 267 264 263 261 260 259 258 258 258 258 258 258 258
260 260 260 260 259 258 258 258 258 259 261 262 262 263 263 263 263 264 264 265 265 264 264 264 264 264 264 265 266 266 265 266 266 266 264 263 260 257 255 255 255 256 257 257 256 255 254 254 254 254 253 252 251 250 251 252 255 260 259 254 252 251 253 257 259 264 270 271 271 272 273 273 271 268 267 269 271 272 272 270 269 271 272 270 269 268 266 265 263 261 259 258 258 258 258 258 258
260 260 260 261 261 260 260 260 260 261 262 262 263 263 263 262 262 263 263 264 263 263 263 262 262 262 262 263 264 264 263 264 265 267 267 265 263 261 259 257 256 256 256 257 258 258 257 257 257 256 254 253 253 253 253 251 251 256 260 260 259 258 256 256 260 267 274 275 273 273 272 272 271 267 265 266 268 269 270 269 269 271 272 269 268 270 270 269 268 266 263 261 259 258 258 258 258